星链-3800 (STARLINK-3800 )

导读 | 星芒AI

STARLINK-3800 是 SpaceX Starlink 卫星互联网项目中的第 3800 颗卫星,属于“星链”计划的中轨道卫星群。该卫星旨在为全球用户提供高速、低延迟的宽带互联网服务,特别服务于偏远和网络基础设施薄弱的地区。它采用先进的推进和通信技术,支持全球范围内的实时连接。STARLINK-3800 的发射和运行有助于扩展 Starlink 网络的覆盖范围和稳定性,推动全球互联网普及。

基本信息
目录编号:
52379
目录名称:
STARLINK-3800
国际标识:
2022-045BA
轨道中心:
EARTH
卫星名称:
星链-3800
卫星全名:
星链-3800 (STARLINK-3800 )
卫星状态:
在轨 (已飞行1285 天)
发射日期:
2022-04-29 UTC
国别 :
美国 (US)
星等 :
--
轨道信息
数据来源 国际轨道数据 AOE轨道数据
星历时间 2025-11-04T19:33:12+0800
7小时前
查看轨道信息
2025-11-04T10:00:00+0800
17小时前
查看轨道信息
半长轴 6917.87km 6917.884km
偏心率 0.0001366 0.0001214
轨道倾角 53.218° 53.218°
近地点辐角 100.050° 81.294°
升交点赤经 31.201° 32.989°
平近点角 260.065° 275.461°
近地点 538.79km 538.909km
远地点 540.68km 540.589km
周期 95.437分钟 95.438分钟
每日圈数 15.088436 15.08839
详细信息
固有亮度:
5
最大亮度:
2.5
卫星平台:
Starlink v1.5
覆盖范围:
全球
运营商:
太空探索技术公司
运营商所在国:
美国
制造商(研发单位):
太空探索技术公司
制造商所在国:
美国
使用方式:
暂无
卫星简介
星链(Starlink)计划是由太空探索技术公司(SpaceX)提出的一个巨型低轨卫星互联网星座项目,计划在2019年至2024年间在太空搭建由约1.2万颗卫星组成的“星链”网络,其中1584颗将部署在地球上空550千米处的近地轨道,并从2020年开始工作。该卫星仍在工作。
2D轨道图
3D轨道图
轨道高度分析图
轨道倾角分析图
轨道综合分析图
查看轨道综合分析图